Location: Ar Ranvel
(48.3000°N, 4.8833°W)
Time: 04:42:11
(UTC+00:00)

Cosmos 2322 Rocket - Pass Details

Date: 31 October 2021
Orbit: 832 x 851 km, 71.0° (Epoch: 01 December)

Event Time Altitude Azimuth Distance (km) Brightness Sun altitude
Rises 19:47:56 0° 269° (W) 3,379 6.5 -28.0°
Reaches altitude 10° 19:51:35 10° 293° (WNW) 2,451 5.5 -28.6°
Maximum altitude 19:54:38 15° 326° (NNW) 2,146 4.8 -29.1°
Drops below altitude 10° 19:57:41 10° 359° (N) 2,463 4.7 -29.6°
Enters shadow 19:59:35 - 14° (NNE) 2,898 5.0 -29.9°
